Hourly Data Report for August 24, 2020

SVARTEVAEG
NUNAVUT
Current Station Operator: ECCC - MSC

81°09'39.000" N
91°48'59.060" W
72.00 m
2403833
71872
NSG

Download Data

Hourly Data (August 2020)
Hourly Data Report for August 24, 2020
TIME Temp Definition
°C
Dew Point Definition
°C
Rel Hum Definition
%
Wind Dir Definition
10's deg

Wind Spd Definition
km/h
Visibility Definition
km
Stn Press Definition
kPa
Hmdx Definition


Wind Chill Definition


Weather Definition


00:00 0.5 0.3 99 16 34   99.50     LegendNANA
01:00 0.3 0.2 99 16 39   99.39     LegendNANA
02:00 0.0 0.0 100 16 37   99.29   -7 LegendNANA
03:00 0.0 0.0 100 18 33   99.17   -7 LegendNANA
04:00 0.0 0.0 100 17 38   99.11   -7 LegendNANA
05:00 -0.1 -0.1 100 22 32   99.06   -7 LegendNANA
06:00 -0.4 -0.4 100 22 31   99.01   -7 LegendNANA
07:00 -1.1 -1.1 99 25 33   98.98   -8 LegendNANA
08:00 -1.2 -1.4 99 24 24   98.96   -7 LegendNANA
09:00 -1.2 -1.4 99 22 22   98.93   -7 LegendNANA
10:00 -1.1 -1.5 97 24 30   98.88   -8 LegendNANA
11:00 -1.0 -1.3 97 24 44   98.90   -9 LegendNANA
12:00 -1.0 -1.4 97 25 49   98.85   -9 LegendNANA
13:00 -1.0 -1.3 98 26 38   98.91   -9 LegendNANA
14:00 -1.1 -1.4 98 26 34   98.93   -8 LegendNANA
15:00 -0.7 -1.6 94 24 36   98.94   -8 LegendNANA
16:00 -0.9 -1.5 96 24 21   98.98   -7 LegendNANA
17:00 -1.1 -1.3 98 22 21   98.99   -7 LegendNANA
18:00 -1.1 -1.2 99 20 13   99.00   -5 LegendNANA
19:00 -1.2 -1.4 99 19 6   99.01   -3 LegendNANA
20:00 -1.4 -1.6 99 25 14   99.00   -6 LegendNANA
21:00 -1.5 -1.6 99 27 12   98.99   -6 LegendNANA
22:00 -1.5 -1.6 99 24 8   99.00   -5 LegendNANA
23:00 -1.4 -1.5 99 24 13   98.98   -6 LegendNANA

Notes on Data Quality.

Legend

  • E = Estimated
  • M = Missing
  • NA = Not Available*
  • [empty] = Indicates an unobserved value
Date modified: